EW0822 Weather Reports


Display with metric or nautical units.
time (UTC)temp
F
wind
direction
speed
MPH
gust
MPH
rain 1hr
in
rain 24hr
in
rain mn
in
humidity
%
barometer
mb
20260502123022 80 65 0.0 6.0 0.00 0.00 0.00 38 1016.6
20260502121509 80 46 0.0 3.0 0.00 0.00 0.00 38 1016.7
20260502114504 80 100 0.0 0.0 0.00 0.00 0.00 38 1017.3
20260502113105 79 196 0.0 0.0 0.00 0.00 0.00 38 1017.4
20260502111602 78 128 0.0 2.0 0.00 0.00 0.00 39 1017.7
20260502110056 78 65 1.0 6.0 0.00 0.00 0.00 38 1017.8
20260502104552 78 32 0.0 2.0 0.00 0.00 0.00 38 1018.1
20260502103101 77 94 0.0 5.0 0.00 0.00 0.00 40 1018.3
20260502101557 76 41 0.0 6.0 0.00 0.00 0.00 42 1018.5
20260502100107 75 45 0.0 1.0 0.00 0.00 0.00 42 1018.6
20260502091532 73 71 0.0 0.0 0.00 0.00 0.00 41 1019.2
20260502071502 63 72 0.0 0.0 0.00 0.00 0.00 51 1019.6
20260502070001 63 73 0.0 2.0 0.00 0.00 0.00 50 1019.6
20260502064612 62 35 0.0 6.0 0.00 0.00 0.00 51 1019.5
20260502063107 62 55 0.0 4.0 0.00 0.00 0.00 51 1019.6
20260502061613 62 64 0.0 5.0 0.00 0.00 0.00 51 1019.5
20260502060053 61 55 0.0 3.0 0.00 0.00 0.00 50 1019.7
20260502054549 60 59 0.0 4.0 0.00 0.00 0.00 52 1019.8
20260502053047 59 88 0.0 5.0 0.00 0.00 0.00 53 1019.8
20260502051541 58 43 0.0 4.0 0.00 0.00 0.00 55 1019.5
20260502050035 57 51 0.0 6.0 0.00 0.00 0.00 56 1019.5
20260502044530 56 56 0.0 3.0 0.00 0.00 0.00 57 1019.6
20260502043030 56 49 0.0 6.0 0.00 0.00 0.00 57 1019.5
20260502041531 56 53 0.0 1.0 0.00 0.00 0.00 57 1019.6
20260502040025 56 51 0.0 4.0 0.00 0.00 0.00 57 1019.6
20260502034524 56 51 0.0 4.0 0.00 0.00 0.00 57 1019.7
20260502033026 56 42 0.0 1.0 0.00 0.00 0.00 58 1019.8
20260502031522 56 50 0.0 0.0 0.00 0.00 0.00 57 1019.9
20260502030021 57 55 0.0 0.0 0.00 0.00 0.00 56 1020.0
20260502024521 57 54 0.0 5.0 0.00 0.00 0.00 55 1020.0
20260502023119 57 40 0.0 2.0 0.00 0.00 0.00 56 1020.0
20260502021518 57 57 0.0 0.0 0.00 0.00 0.00 55 1020.1
20260502020017 57 61 0.0 0.0 0.00 0.00 0.00 55 1020.1
20260502014515 57 43 0.0 2.0 0.00 0.00 0.00 55 1020.2
20260502013014 57 34 0.0 1.0 0.00 0.00 0.00 56 1020.4
20260502011513 57 53 0.0 2.0 0.00 0.00 0.00 55 1020.5
20260502010011 57 55 0.0 1.0 0.00 0.00 0.00 56 1020.6
20260502004509 56 47 0.0 0.0 0.00 0.00 0.00 58 1020.8
20260502003007 55 51 0.0 0.0 0.00 0.00 0.00 59 1020.9
20260502001506 55 51 0.0 0.0 0.00 0.00 0.00 59 1021.0
20260502000004 56 51 0.0 0.0 0.00 0.00 0.00 59 1021.2
20260501234502 56 51 0.0 0.0 0.00 0.00 0.00 58 1021.3
20260501233059 57 51 0.0 0.0 0.00 0.00 0.00 57 1021.4
20260501231601 57 51 0.0 0.0 0.00 0.00 0.00 55 1021.6
20260501230100 58 51 0.0 0.0 0.00 0.00 0.00 54 1021.5
20260501224555 58 50 0.0 0.0 0.00 0.00 0.00 54 1021.5
20260501223103 58 53 0.0 0.0 0.00 0.00 0.00 54 1021.6
20260501221552 57 54 0.0 0.0 0.00 0.00 0.00 56 1021.6
20260501220054 57 54 0.0 0.0 0.00 0.00 0.00 57 1021.7
20260501214557 57 54 0.0 0.0 0.00 0.00 0.00 58 1021.7
20260501213053 57 53 0.0 0.0 0.00 0.00 0.00 59 1021.7
20260501211558 57 53 0.0 0.0 0.00 0.00 0.00 58 1021.7
20260501210050 58 53 0.0 0.0 0.00 0.00 0.00 56 1021.7
20260501204616 59 53 0.0 0.0 0.00 0.00 0.00 53 1021.7
20260501203045 60 53 0.0 0.0 0.00 0.00 0.00 50 1021.8
20260501201545 62 53 0.0 0.0 0.00 0.00 0.00 48 1021.8
20260501200045 63 53 0.0 0.0 0.00 0.00 0.00 47 1021.8
20260501194544 64 53 0.0 0.0 0.00 0.00 0.00 45 1021.7
20260501193044 66 53 0.0 0.0 0.00 0.00 0.00 41 1021.7
20260501191543 67 53 0.0 0.0 0.00 0.00 0.00 39 1021.7
20260501190041 68 55 0.0 0.0 0.00 0.00 0.00 36 1021.7
20260501184541 70 62 0.0 0.0 0.00 0.00 0.00 34 1021.7
20260501183043 71 62 0.0 0.0 0.00 0.00 0.00 33 1021.7
20260501181547 72 67 0.0 1.0 0.00 0.00 0.00 31 1021.6
20260501180040 72 46 0.0 4.0 0.00 0.00 0.00 31 1021.5
20260501174542 73 13 0.0 5.0 0.00 0.00 0.00 29 1021.5
20260501173040 73 45 0.0 3.0 0.00 0.00 0.00 29 1021.5
20260501171536 73 59 0.0 9.0 0.00 0.00 0.00 28 1021.5
20260501170039 74 360 0.0 12.0 0.00 0.00 0.00 28 1021.6
20260501164533 74 18 3.0 10.0 0.00 0.00 0.00 27 1021.5
20260501163032 75 33 1.0 7.0 0.00 0.00 0.00 27 1021.7
20260501161531 74 128 1.0 10.0 0.00 0.00 0.00 27 1021.7
20260501160029 74 19 3.0 11.0 0.00 0.00 0.00 27 1021.8
20260501154528 74 43 1.0 11.0 0.00 0.00 0.00 27 1021.9
20260501153034 74 54 3.0 10.0 0.00 0.00 0.00 27 1022.1
20260501151523 73 28 2.0 10.0 0.00 0.00 0.00 27 1022.3
20260501150024 73 53 2.0 9.0 0.00 0.00 0.00 28 1022.5